,,PressureMeas_1m,,PRMeasQMR101_1,,RHStat155_1m_1,,SRMeasQMS101R_1m,,TAStat155_1m_1,,GenWind_1,,GenWind_1,
2019-08-04, 00:00:06,VALID,918.877,VALID,0.0,VALID,97.233,VALID,0.023,VALID,20.101,VALID,71.0,VALID,0.0,
2019-08-04, 00:01:06,VALID,918.872,VALID,0.0,VALID,97.43,VALID,0.03,VALID,20.13,VALID,70.0,VALID,0.0,
2019-08-04, 00:02:06,VALID,918.861,VALID,0.0,VALID,97.403,VALID,0.018,VALID,20.179,VALID,78.0,VALID,0.0,
2019-08-04, 00:03:06,VALID,918.855,VALID,0.0,VALID,97.789,VALID,0.009,VALID,20.253,VALID,81.0,VALID,0.0,
2019-08-04, 00:04:06,VALID,918.827,VALID,0.0,VALID,97.566,VALID,-0.056,VALID,20.224,VALID,90.0,VALID,0.0,
2019-08-04, 00:05:06,VALID,918.834,VALID,0.0,VALID,97.334,VALID,-0.045,VALID,20.19,VALID,90.0,VALID,0.0,
2019-08-04, 00:06:06,VALID,918.816,VALID,0.0,VALID,97.129,VALID,-0.044,VALID,20.157,VALID,91.0,VALID,0.0,
2019-08-04, 00:07:06,VALID,918.821,VALID,0.0,VALID,97.038,VALID,-0.06,VALID,20.116,VALID,91.0,VALID,0.0,
2019-08-04, 00:08:06,VALID,918.808,VALID,0.0,VALID,96.718,VALID,-0.077,VALID,20.074,VALID,91.0,VALID,0.0,
2019-08-04, 00:09:06,VALID,918.801,VALID,0.0,VALID,96.56,VALID,-0.075,VALID,20.096,VALID,91.0,VALID,0.0,
2019-08-04, 00:10:06,VALID,918.778,VALID,0.0,VALID,96.832,VALID,-0.058,VALID,20.154,VALID,91.0,VALID,0.0,
2019-08-04, 00:11:06,VALID,918.727,VALID,0.0,VALID,96.78,VALID,-0.066,VALID,20.165,VALID,91.0,VALID,0.0,
2019-08-04, 00:12:06,VALID,918.724,VALID,0.0,VALID,96.903,VALID,-0.074,VALID,20.205,VALID,91.0,VALID,0.0,
2019-08-04, 00:13:06,VALID,918.682,VALID,0.0,VALID,97.313,VALID,-0.072,VALID,20.242,VALID,98.0,VALID,0.0,
2019-08-04, 00:14:06,VALID,918.654,VALID,0.0,VALID,97.391,VALID,-0.076,VALID,20.196,VALID,108.0,VALID,0.0,
2019-08-04, 00:15:06,VALID,918.628,VALID,0.0,VALID,97.572,VALID,-0.079,VALID,20.166,VALID,114.0,VALID,0.0,
2019-08-04, 00:16:06,VALID,918.618,VALID,0.0,VALID,97.579,VALID,-0.072,VALID,20.113,VALID,134.0,VALID,0.0,
2019-08-04, 00:17:06,VALID,918.591,VALID,0.0,VALID,97.464,VALID,-0.068,VALID,20.064,VALID,133.0,VALID,0.0,
2019-08-04, 00:18:06,VALID,918.593,VALID,0.0,VALID,97.449,VALID,-0.046,VALID,20.044,VALID,132.0,VALID,0.0,
2019-08-04, 00:19:06,VALID,918.573,VALID,0.0,VALID,97.448,VALID,-0.033,VALID,20.03,VALID,135.0,VALID,0.0,
2019-08-04, 00:20:06,VALID,918.581,VALID,0.0,VALID,97.296,VALID,-0.036,VALID,20.009,VALID,137.0,VALID,0.0,
2019-08-04, 00:21:06,VALID,918.576,VALID,0.0,VALID,96.954,VALID,-0.046,VALID,19.974,VALID,124.0,VALID,0.0,
2019-08-04, 00:22:06,VALID,918.591,VALID,0.0,VALID,96.724,VALID,-0.033,VALID,19.944,VALID,126.0,VALID,0.0,
2019-08-04, 00:23:06,VALID,918.59,VALID,0.0,VALID,96.745,VALID,-0.034,VALID,19.921,VALID,124.0,VALID,0.0,
2019-08-04, 00:24:06,VALID,918.593,VALID,0.0,VALID,97.143,VALID,-0.032,VALID,19.932,VALID,123.0,VALID,0.0,
2019-08-04, 00:25:06,VALID,918.585,VALID,0.0,VALID,97.713,VALID,-0.016,VALID,19.968,VALID,111.0,VALID,0.0,
2019-08-04, 00:26:06,VALID,918.591,VALID,0.0,VALID,97.878,VALID,-0.028,VALID,19.934,VALID,97.0,VALID,0.0,
2019-08-04, 00:27:06,VALID,918.59,VALID,0.0,VALID,97.892,VALID,-0.028,VALID,19.906,VALID,104.0,VALID,0.0,
2019-08-04, 00:28:06,VALID,918.602,VALID,0.0,VALID,98.009,VALID,-0.028,VALID,19.918,VALID,100.0,VALID,0.0,
2019-08-04, 00:29:06,VALID,918.595,VALID,0.0,VALID,98.121,VALID,-0.02,VALID,19.926,VALID,92.0,VALID,0.0,
2019-08-04, 00:30:06,VALID,918.583,VALID,0.0,VALID,98.107,VALID,-0.015,VALID,19.914,VALID,96.0,VALID,0.0,
2019-08-04, 00:31:06,VALID,918.55,VALID,0.0,VALID,98.215,VALID,-0.013,VALID,19.923,VALID,97.0,VALID,0.0,
2019-08-04, 00:32:06,VALID,918.54,VALID,0.0,VALID,98.342,VALID,-0.017,VALID,19.932,VALID,98.0,VALID,0.0,
2019-08-04, 00:33:06,VALID,918.524,VALID,0.0,VALID,98.428,VALID,-0.025,VALID,19.927,VALID,99.0,VALID,0.0,
2019-08-04, 00:34:06,VALID,918.509,VALID,0.0,VALID,98.488,VALID,0.019,VALID,19.909,VALID,104.0,VALID,0.0,
2019-08-04, 00:35:06,VALID,918.514,VALID,0.0,VALID,98.507,VALID,0.017,VALID,19.892,VALID,102.0,VALID,0.0,
2019-08-04, 00:36:06,VALID,918.513,VALID,0.0,VALID,98.525,VALID,0.014,VALID,19.898,VALID,102.0,VALID,0.0,
2019-08-04, 00:37:06,VALID,918.498,VALID,0.0,VALID,98.516,VALID,0.01,VALID,19.911,VALID,93.0,VALID,0.0,
2019-08-04, 00:38:06,VALID,918.501,VALID,0.0,VALID,98.456,VALID,0.011,VALID,19.925,VALID,88.0,VALID,0.0,
2019-08-04, 00:39:06,VALID,918.492,VALID,0.0,VALID,98.383,VALID,0.002,VALID,19.95,VALID,88.0,VALID,0.0,
2019-08-04, 00:40:06,VALID,918.497,VALID,0.0,VALID,98.245,VALID,0.012,VALID,19.948,VALID,88.0,VALID,0.0,
2019-08-04, 00:41:06,VALID,918.501,VALID,0.0,VALID,98.006,VALID,0.023,VALID,19.932,VALID,88.0,VALID,0.0,
2019-08-04, 00:42:06,VALID,918.506,VALID,0.0,VALID,97.687,VALID,0.03,VALID,19.891,VALID,88.0,VALID,0.0,
2019-08-04, 00:43:06,VALID,918.515,VALID,0.0,VALID,97.513,VALID,0.02,VALID,19.881,VALID,88.0,VALID,0.0,
2019-08-04, 00:44:06,VALID,918.531,VALID,0.0,VALID,97.53,VALID,0.03,VALID,19.888,VALID,88.0,VALID,0.0,
2019-08-04, 00:45:06,VALID,918.538,VALID,0.0,VALID,97.504,VALID,0.033,VALID,19.883,VALID,88.0,VALID,0.0,
2019-08-04, 00:46:06,VALID,918.526,VALID,0.0,VALID,97.535,VALID,0.043,VALID,19.879,VALID,88.0,VALID,0.0,
2019-08-04, 00:47:06,VALID,918.514,VALID,0.0,VALID,97.432,VALID,0.028,VALID,19.837,VALID,88.0,VALID,0.0,
2019-08-04, 00:48:06,VALID,918.508,VALID,0.0,VALID,97.43,VALID,0.001,VALID,19.794,VALID,88.0,VALID,0.0,
2019-08-04, 00:49:06,VALID,918.494,VALID,0.0,VALID,97.471,VALID,-0.024,VALID,19.748,VALID,99.0,VALID,0.0,
2019-08-04, 00:50:06,VALID,918.494,VALID,0.0,VALID,97.65,VALID,-0.04,VALID,19.748,VALID,105.0,VALID,0.0,
2019-08-04, 00:51:06,VALID,918.486,VALID,0.0,VALID,97.93,VALID,-0.044,VALID,19.785,VALID,105.0,VALID,0.0,
2019-08-04, 00:52:06,VALID,918.483,VALID,0.0,VALID,98.151,VALID,-0.041,VALID,19.835,VALID,105.0,VALID,0.0,
2019-08-04, 00:53:06,VALID,918.5,VALID,0.0,VALID,98.086,VALID,-0.042,VALID,19.822,VALID,105.0,VALID,0.0,
2019-08-04, 00:54:06,VALID,918.471,VALID,0.0,VALID,97.708,VALID,-0.041,VALID,19.74,VALID,105.0,VALID,0.0,
2019-08-04, 00:55:06,VALID,918.467,VALID,0.0,VALID,97.32,VALID,-0.03,VALID,19.668,VALID,105.0,VALID,0.0,
2019-08-04, 00:56:06,VALID,918.458,VALID,0.0,VALID,97.465,VALID,-0.051,VALID,19.665,VALID,105.0,VALID,0.0,
2019-08-04, 00:57:06,VALID,918.435,VALID,0.0,VALID,97.677,VALID,-0.034,VALID,19.671,VALID,104.0,VALID,0.0,
2019-08-04, 00:58:06,VALID,918.427,VALID,0.0,VALID,97.809,VALID,-0.054,VALID,19.661,VALID,97.0,VALID,0.0,
2019-08-04, 00:59:06,VALID,918.423,VALID,0.0,VALID,97.691,VALID,-0.034,VALID,19.638,VALID,85.0,VALID,0.0,
2019-08-04, 01:00:06,VALID,918.415,VALID,0.0,VALID,97.614,VALID,-0.05,VALID,19.632,VALID,81.0,VALID,0.0,
2019-08-04, 01:01:06,VALID,918.412,VALID,0.0,VALID,97.389,VALID,-0.032,VALID,19.608,VALID,81.0,VALID,0.0,
2019-08-04, 01:02:06,VALID,918.395,VALID,0.0,VALID,97.287,VALID,0.006,VALID,19.598,VALID,81.0,VALID,0.0,
2019-08-04, 01:03:06,VALID,918.404,VALID,0.0,VALID,97.315,VALID,0.02,VALID,19.596,VALID,81.0,VALID,0.0,
2019-08-04, 01:04:06,VALID,918.385,VALID,0.0,VALID,97.197,VALID,0.034,VALID,19.566,VALID,81.0,VALID,0.0,
2019-08-04, 01:05:06,VALID,918.354,VALID,0.0,VALID,97.17,VALID,0.028,VALID,19.551,VALID,82.0,VALID,0.0,
2019-08-04, 01:06:06,VALID,918.318,VALID,0.0,VALID,96.712,VALID,0.048,VALID,19.477,VALID,124.0,VALID,0.0,
2019-08-04, 01:07:06,VALID,918.291,VALID,0.0,VALID,97.036,VALID,0.049,VALID,19.508,VALID,138.0,VALID,0.0,
2019-08-04, 01:08:06,VALID,918.269,VALID,0.0,VALID,97.446,VALID,0.021,VALID,19.55,VALID,127.0,VALID,0.0,
2019-08-04, 01:09:06,VALID,918.26,VALID,0.0,VALID,97.699,VALID,0.029,VALID,19.586,VALID,123.0,VALID,0.0,
2019-08-04, 01:10:06,VALID,918.217,VALID,0.0,VALID,97.711,VALID,0.034,VALID,19.602,VALID,120.0,VALID,0.0,
2019-08-04, 01:11:06,VALID,918.215,VALID,0.0,VALID,97.472,VALID,0.038,VALID,19.611,VALID,112.0,VALID,0.0,
2019-08-04, 01:12:06,VALID,918.214,VALID,0.0,VALID,97.179,VALID,0.054,VALID,19.6,VALID,105.0,VALID,0.0,
2019-08-04, 01:13:06,VALID,918.222,VALID,0.0,VALID,96.854,VALID,0.044,VALID,19.597,VALID,107.0,VALID,0.0,
2019-08-04, 01:14:06,VALID,918.22,VALID,0.0,VALID,96.644,VALID,0.053,VALID,19.602,VALID,105.0,VALID,0.0,
2019-08-04, 01:15:06,VALID,918.224,VALID,0.0,VALID,96.425,VALID,0.042,VALID,19.601,VALID,99.0,VALID,0.0,
2019-08-04, 01:16:06,VALID,918.229,VALID,0.0,VALID,96.259,VALID,0.058,VALID,19.597,VALID,98.0,VALID,0.0,
2019-08-04, 01:17:06,VALID,918.23,VALID,0.0,VALID,96.181,VALID,0.06,VALID,19.583,VALID,94.0,VALID,0.0,
2019-08-04, 01:18:06,VALID,918.227,VALID,0.0,VALID,96.111,VALID,0.044,VALID,19.555,VALID,94.0,VALID,0.0,
2019-08-04, 01:19:06,VALID,918.224,VALID,0.0,VALID,96.012,VALID,0.025,VALID,19.517,VALID,94.0,VALID,0.0,
2019-08-04, 01:20:06,VALID,918.211,VALID,0.0,VALID,96.226,VALID,0.032,VALID,19.515,VALID,94.0,VALID,0.0,
2019-08-04, 01:21:06,VALID,918.178,VALID,0.0,VALID,96.64,VALID,0.047,VALID,19.523,VALID,94.0,VALID,0.0,
2019-08-04, 01:22:06,VALID,918.167,VALID,0.0,VALID,97.05,VALID,0.049,VALID,19.549,VALID,94.0,VALID,0.0,
2019-08-04, 01:23:06,VALID,918.147,VALID,0.0,VALID,97.05,VALID,0.027,VALID,19.521,VALID,96.0,VALID,0.0,
2019-08-04, 01:24:06,VALID,918.141,VALID,0.0,VALID,97.052,VALID,0.021,VALID,19.495,VALID,96.0,VALID,0.0,
2019-08-04, 01:25:06,VALID,918.128,VALID,0.0,VALID,97.074,VALID,0.031,VALID,19.472,VALID,91.0,VALID,0.0,
2019-08-04, 01:26:06,VALID,918.097,VALID,0.0,VALID,97.137,VALID,0.032,VALID,19.463,VALID,90.0,VALID,0.0,
2019-08-04, 01:27:06,VALID,918.087,VALID,0.0,VALID,97.342,VALID,0.038,VALID,19.478,VALID,90.0,VALID,0.0,
2019-08-04, 01:28:06,VALID,918.045,VALID,0.0,VALID,97.379,VALID,0.038,VALID,19.44,VALID,102.0,VALID,0.0,
2019-08-04, 01:29:06,VALID,918.027,VALID,0.0,VALID,97.323,VALID,0.048,VALID,19.409,VALID,108.0,VALID,0.0,
2019-08-04, 01:30:06,VALID,918.015,VALID,0.0,VALID,97.324,VALID,0.036,VALID,19.386,VALID,104.0,VALID,0.0,
2019-08-04, 01:31:06,VALID,918.01,VALID,0.0,VALID,97.253,VALID,0.047,VALID,19.353,VALID,102.0,VALID,0.0,
2019-08-04, 01:32:06,VALID,918.037,VALID,0.0,VALID,97.247,VALID,0.032,VALID,19.342,VALID,100.0,VALID,0.0,
2019-08-04, 01:33:06,VALID,918.053,VALID,0.0,VALID,97.524,VALID,0.025,VALID,19.381,VALID,94.0,VALID,0.0,
2019-08-04, 01:34:06,VALID,918.081,VALID,0.0,VALID,97.797,VALID,-0.053,VALID,19.407,VALID,95.0,VALID,0.0,
2019-08-04, 01:35:06,VALID,918.104,VALID,0.0,VALID,97.931,VALID,-0.044,VALID,19.413,VALID,103.0,VALID,0.0,
2019-08-04, 01:36:06,VALID,918.127,VALID,0.0,VALID,98.012,VALID,-0.023,VALID,19.426,VALID,105.0,VALID,0.0,
2019-08-04, 01:37:06,VALID,918.137,VALID,0.0,VALID,98.086,VALID,-0.034,VALID,19.451,VALID,104.0,VALID,0.0,
2019-08-04, 01:38:06,VALID,918.151,VALID,0.0,VALID,98.161,VALID,-0.034,VALID,19.464,VALID,102.0,VALID,0.0,
2019-08-04, 01:39:06,VALID,918.136,VALID,0.0,VALID,98.169,VALID,-0.035,VALID,19.478,VALID,108.0,VALID,0.0,
2019-08-04, 01:40:06,VALID,918.123,VALID,0.0,VALID,98.204,VALID,-0.037,VALID,19.488,VALID,109.0,VALID,0.0,
2019-08-04, 01:41:06,VALID,918.141,VALID,0.0,VALID,98.11,VALID,-0.026,VALID,19.481,VALID,105.0,VALID,0.0,
2019-08-04, 01:42:06,VALID,918.139,VALID,0.0,VALID,98.047,VALID,-0.031,VALID,19.474,VALID,103.0,VALID,0.0,
2019-08-04, 01:43:06,VALID,918.141,VALID,0.0,VALID,97.988,VALID,-0.041,VALID,19.477,VALID,104.0,VALID,0.0,
2019-08-04, 01:44:06,VALID,918.12,VALID,0.0,VALID,97.856,VALID,-0.036,VALID,19.454,VALID,106.0,VALID,0.0,
2019-08-04, 01:45:06,VALID,918.112,VALID,0.0,VALID,97.775,VALID,-0.04,VALID,19.456,VALID,113.0,VALID,0.0,
2019-08-04, 01:46:06,VALID,918.08,VALID,0.0,VALID,97.831,VALID,-0.034,VALID,19.457,VALID,114.0,VALID,0.0,
2019-08-04, 01:47:06,VALID,918.061,VALID,0.0,VALID,97.813,VALID,-0.032,VALID,19.444,VALID,113.0,VALID,0.0,
2019-08-04, 01:48:06,VALID,918.033,VALID,0.0,VALID,97.856,VALID,-0.023,VALID,19.464,VALID,113.0,VALID,0.0,
2019-08-04, 01:49:06,VALID,918.019,VALID,0.0,VALID,97.8,VALID,-0.025,VALID,19.482,VALID,114.0,VALID,0.0,
2019-08-04, 01:50:06,VALID,918.003,VALID,0.0,VALID,97.569,VALID,-0.007,VALID,19.452,VALID,133.0,VALID,0.0,
2019-08-04, 01:51:06,VALID,918.003,VALID,0.0,VALID,97.356,VALID,-0.016,VALID,19.446,VALID,127.0,VALID,0.0,
2019-08-04, 01:52:06,VALID,917.996,VALID,0.0,VALID,97.264,VALID,-0.004,VALID,19.451,VALID,125.0,VALID,0.0,
2019-08-04, 01:53:06,VALID,917.973,VALID,0.0,VALID,97.332,VALID,-0.022,VALID,19.474,VALID,125.0,VALID,0.0,
2019-08-04, 01:54:06,VALID,917.959,VALID,0.0,VALID,97.45,VALID,-0.012,VALID,19.47,VALID,125.0,VALID,0.0,
2019-08-04, 01:55:06,VALID,917.952,VALID,0.0,VALID,97.611,VALID,-0.013,VALID,19.477,VALID,125.0,VALID,0.0,
2019-08-04, 01:56:06,VALID,917.938,VALID,0.0,VALID,97.658,VALID,0.0,VALID,19.446,VALID,127.0,VALID,0.0,
2019-08-04, 01:57:06,VALID,917.942,VALID,0.0,VALID,97.599,VALID,0.0,VALID,19.413,VALID,130.0,VALID,0.0,
2019-08-04, 01:58:06,VALID,917.943,VALID,0.0,VALID,97.785,VALID,-0.013,VALID,19.443,VALID,129.0,VALID,0.0,
2019-08-04, 01:59:06,VALID,917.956,VALID,0.0,VALID,98.21,VALID,-0.005,VALID,19.527,VALID,123.0,VALID,0.0,
2019-08-04, 02:00:06,VALID,917.964,VALID,0.0,VALID,98.276,VALID,-0.017,VALID,19.538,VALID,119.0,VALID,0.0,
2019-08-04, 02:01:06,VALID,917.952,VALID,0.0,VALID,98.253,VALID,-0.006,VALID,19.554,VALID,116.0,VALID,0.0,
2019-08-04, 02:02:06,VALID,917.925,VALID,0.0,VALID,98.092,VALID,-0.008,VALID,19.557,VALID,109.0,VALID,0.0,
2019-08-04, 02:03:06,VALID,917.912,VALID,0.0,VALID,97.793,VALID,-0.011,VALID,19.541,VALID,107.0,VALID,0.0,
2019-08-04, 02:04:06,VALID,917.888,VALID,0.0,VALID,97.308,VALID,0.012,VALID,19.518,VALID,110.0,VALID,0.0,
2019-08-04, 02:05:06,VALID,917.874,VALID,0.0,VALID,97.04,VALID,0.014,VALID,19.524,VALID,112.0,VALID,0.0,
2019-08-04, 02:06:06,VALID,917.869,VALID,0.0,VALID,96.773,VALID,0.02,VALID,19.505,VALID,114.0,VALID,0.0,
2019-08-04, 02:07:06,VALID,917.853,VALID,0.0,VALID,96.46,VALID,0.018,VALID,19.455,VALID,114.0,VALID,0.0,
2019-08-04, 02:08:06,VALID,917.847,VALID,0.0,VALID,96.605,VALID,0.006,VALID,19.438,VALID,114.0,VALID,0.0,
2019-08-04, 02:09:06,VALID,917.84,VALID,0.0,VALID,96.614,VALID,-0.001,VALID,19.394,VALID,114.0,VALID,0.0,
2019-08-04, 02:10:06,VALID,917.853,VALID,0.0,VALID,96.67,VALID,0.024,VALID,19.36,VALID,113.0,VALID,0.0,
2019-08-04, 02:11:06,VALID,917.86,VALID,0.0,VALID,96.762,VALID,0.032,VALID,19.336,VALID,109.0,VALID,0.0,
2019-08-04, 02:12:06,VALID,917.862,VALID,0.0,VALID,96.719,VALID,0.025,VALID,19.313,VALID,109.0,VALID,0.0,
2019-08-04, 02:13:06,VALID,917.864,VALID,0.0,VALID,96.401,VALID,0.016,VALID,19.265,VALID,109.0,VALID,0.0,
2019-08-04, 02:14:06,VALID,917.869,VALID,0.0,VALID,96.182,VALID,0.004,VALID,19.234,VALID,109.0,VALID,0.0,
2019-08-04, 02:15:06,VALID,917.859,VALID,0.0,VALID,96.323,VALID,0.01,VALID,19.191,VALID,109.0,VALID,0.0,
2019-08-04, 02:16:06,VALID,917.847,VALID,0.0,VALID,96.509,VALID,0.02,VALID,19.162,VALID,109.0,VALID,0.0,
2019-08-04, 02:17:06,VALID,917.829,VALID,0.0,VALID,96.45,VALID,0.018,VALID,19.06,VALID,115.0,VALID,0.0,
2019-08-04, 02:18:06,VALID,917.823,VALID,0.0,VALID,96.389,VALID,-0.004,VALID,18.969,VALID,125.0,VALID,0.0,
2019-08-04, 02:19:06,VALID,917.811,VALID,0.0,VALID,96.699,VALID,-0.042,VALID,18.929,VALID,128.0,VALID,0.0,
2019-08-04, 02:20:06,VALID,917.793,VALID,0.0,VALID,97.117,VALID,-0.041,VALID,18.919,VALID,131.0,VALID,0.0,
2019-08-04, 02:21:06,VALID,917.789,VALID,0.0,VALID,97.481,VALID,-0.046,VALID,18.948,VALID,126.0,VALID,0.0,
2019-08-04, 02:22:06,VALID,917.776,VALID,0.0,VALID,98.141,VALID,-0.047,VALID,19.047,VALID,116.0,VALID,0.0,
2019-08-04, 02:23:06,VALID,917.755,VALID,0.0,VALID,97.996,VALID,-0.042,VALID,18.948,VALID,102.0,VALID,0.0,
2019-08-04, 02:24:06,VALID,917.741,VALID,0.0,VALID,97.956,VALID,-0.033,VALID,18.983,VALID,90.0,VALID,0.0,
2019-08-04, 02:25:06,VALID,917.733,VALID,0.0,VALID,98.164,VALID,-0.045,VALID,19.075,INVALID,360.0,VALID,0.0,
2019-08-04, 02:26:06,VALID,917.704,VALID,0.0,VALID,98.265,VALID,-0.047,VALID,19.136,INVALID,360.0,VALID,0.0,
2019-08-04, 02:27:06,VALID,917.681,VALID,0.0,VALID,98.168,VALID,-0.045,VALID,19.157,INVALID,360.0,VALID,0.0,
2019-08-04, 02:28:06,VALID,917.658,VALID,0.0,VALID,98.082,VALID,-0.051,VALID,19.177,INVALID,360.0,VALID,0.0,
2019-08-04, 02:29:06,VALID,917.634,VALID,0.0,VALID,98.0,VALID,-0.047,VALID,19.21,INVALID,360.0,VALID,0.0,
2019-08-04, 02:30:06,VALID,917.618,VALID,0.0,VALID,97.983,VALID,-0.032,VALID,19.239,INVALID,360.0,VALID,0.0,
2019-08-04, 02:31:06,VALID,917.617,VALID,0.0,VALID,97.822,VALID,-0.044,VALID,19.226,INVALID,360.0,VALID,0.0,
2019-08-04, 02:32:06,VALID,917.576,VALID,0.0,VALID,97.706,VALID,-0.036,VALID,19.234,INVALID,360.0,VALID,0.0,
2019-08-04, 02:33:06,VALID,917.573,VALID,0.0,VALID,97.629,VALID,-0.026,VALID,19.238,INVALID,360.0,VALID,0.0,
2019-08-04, 02:34:06,VALID,917.539,VALID,0.0,VALID,97.658,VALID,0.005,VALID,19.271,INVALID,360.0,VALID,0.0,
2019-08-04, 02:35:06,VALID,917.519,VALID,0.0,VALID,97.585,VALID,-0.01,VALID,19.295,INVALID,360.0,VALID,0.0,
2019-08-04, 02:36:06,VALID,917.497,VALID,0.0,VALID,97.532,VALID,-0.009,VALID,19.328,VALID,60.0,VALID,0.0,
2019-08-04, 02:37:06,VALID,917.478,VALID,0.0,VALID,97.498,VALID,-0.0,VALID,19.35,VALID,61.0,VALID,0.0,
2019-08-04, 02:38:06,VALID,917.477,VALID,0.0,VALID,97.312,VALID,-0.007,VALID,19.341,VALID,61.0,VALID,0.0,
2019-08-04, 02:39:06,VALID,917.493,VALID,0.0,VALID,97.103,VALID,0.004,VALID,19.326,INVALID,360.0,VALID,0.0,
2019-08-04, 02:40:06,VALID,917.491,VALID,0.0,VALID,97.154,VALID,0.012,VALID,19.323,INVALID,360.0,VALID,0.0,
2019-08-04, 02:41:06,VALID,917.493,VALID,0.0,VALID,97.162,VALID,0.009,VALID,19.298,INVALID,360.0,VALID,0.0,
2019-08-04, 02:42:06,VALID,917.489,VALID,0.0,VALID,97.38,VALID,0.002,VALID,19.295,INVALID,360.0,VALID,0.0,
2019-08-04, 02:43:06,VALID,917.492,VALID,0.0,VALID,97.334,VALID,0.021,VALID,19.238,INVALID,360.0,VALID,0.0,
2019-08-04, 02:44:06,VALID,917.498,VALID,0.0,VALID,97.252,VALID,0.017,VALID,19.172,INVALID,360.0,VALID,0.0,
2019-08-04, 02:45:06,VALID,917.491,VALID,0.0,VALID,97.38,VALID,0.004,VALID,19.137,INVALID,360.0,VALID,0.0,
2019-08-04, 02:46:06,VALID,917.515,VALID,0.0,VALID,97.493,VALID,0.004,VALID,19.06,INVALID,360.0,VALID,0.0,
2019-08-04, 02:47:06,VALID,917.48,VALID,0.0,VALID,97.193,VALID,0.015,VALID,18.956,INVALID,360.0,VALID,0.0,
2019-08-04, 02:48:06,VALID,917.453,VALID,0.0,VALID,96.698,VALID,-0.011,VALID,18.851,INVALID,360.0,VALID,0.0,
2019-08-04, 02:49:06,VALID,917.437,VALID,0.0,VALID,96.408,VALID,-0.046,VALID,18.785,INVALID,360.0,VALID,0.0,
2019-08-04, 02:50:06,VALID,917.423,VALID,0.0,VALID,96.741,VALID,-0.032,VALID,18.763,INVALID,360.0,VALID,0.0,
2019-08-04, 02:51:06,VALID,917.407,VALID,0.0,VALID,97.232,VALID,-0.036,VALID,18.747,INVALID,360.0,VALID,0.0,
2019-08-04, 02:52:06,VALID,917.404,VALID,0.0,VALID,97.335,VALID,-0.04,VALID,18.703,INVALID,360.0,VALID,0.0,
2019-08-04, 02:53:06,VALID,917.409,VALID,0.0,VALID,97.643,VALID,-0.039,VALID,18.735,INVALID,360.0,VALID,0.0,
2019-08-04, 02:54:06,VALID,917.43,VALID,0.0,VALID,97.781,VALID,-0.01,VALID,18.752,INVALID,360.0,VALID,0.0,
2019-08-04, 02:55:06,VALID,917.435,VALID,0.0,VALID,97.846,VALID,-0.002,VALID,18.765,INVALID,360.0,VALID,0.0,
2019-08-04, 02:56:06,VALID,917.445,VALID,0.0,VALID,97.845,VALID,0.0,VALID,18.72,INVALID,360.0,VALID,0.0,
2019-08-04, 02:57:06,VALID,917.456,VALID,0.0,VALID,97.617,VALID,-0.007,VALID,18.62,INVALID,360.0,VALID,0.0,
2019-08-04, 02:58:06,VALID,917.443,VALID,0.0,VALID,97.476,VALID,0.01,VALID,18.557,INVALID,360.0,VALID,0.0,
2019-08-04, 02:59:06,VALID,917.439,VALID,0.0,VALID,97.851,VALID,-0.011,VALID,18.57,INVALID,360.0,VALID,0.0,
2019-08-04, 03:00:06,VALID,917.411,VALID,0.0,VALID,98.146,VALID,-0.023,VALID,18.587,INVALID,360.0,VALID,0.0,
2019-08-04, 03:01:06,VALID,917.393,VALID,0.0,VALID,98.316,VALID,-0.004,VALID,18.613,INVALID,360.0,VALID,0.0,
2019-08-04, 03:02:06,VALID,917.385,VALID,0.0,VALID,98.511,VALID,-0.006,VALID,18.639,INVALID,360.0,VALID,0.0,
2019-08-04, 03:03:06,VALID,917.374,VALID,0.0,VALID,98.642,VALID,0.003,VALID,18.676,INVALID,360.0,VALID,0.0,
2019-08-04, 03:04:06,VALID,917.375,VALID,0.0,VALID,98.778,VALID,-0.015,VALID,18.741,INVALID,360.0,VALID,0.0,
2019-08-04, 03:05:06,VALID,917.378,VALID,0.0,VALID,98.959,VALID,-0.007,VALID,18.855,INVALID,360.0,VALID,0.0,
2019-08-04, 03:06:06,VALID,917.375,VALID,0.0,VALID,99.057,VALID,-0.002,VALID,18.901,INVALID,360.0,VALID,0.0,
2019-08-04, 03:07:06,VALID,917.359,VALID,0.0,VALID,98.99,VALID,-0.009,VALID,18.852,INVALID,360.0,VALID,0.0,
2019-08-04, 03:08:06,VALID,917.347,VALID,0.0,VALID,98.962,VALID,-0.027,VALID,18.804,INVALID,360.0,VALID,0.0,
2019-08-04, 03:09:06,VALID,917.367,VALID,0.0,VALID,98.899,VALID,-0.042,VALID,18.758,INVALID,360.0,VALID,0.0,
2019-08-04, 03:10:06,VALID,917.377,VALID,0.0,VALID,98.853,VALID,-0.015,VALID,18.7,INVALID,360.0,VALID,0.0,
2019-08-04, 03:11:06,VALID,917.392,VALID,0.0,VALID,98.713,VALID,-0.029,VALID,18.61,INVALID,360.0,VALID,0.0,
2019-08-04, 03:12:06,VALID,917.4,VALID,0.0,VALID,98.558,VALID,-0.013,VALID,18.52,INVALID,360.0,VALID,0.0,
2019-08-04, 03:13:06,VALID,917.418,VALID,0.0,VALID,98.666,VALID,-0.032,VALID,18.518,INVALID,360.0,VALID,0.0,
2019-08-04, 03:14:06,VALID,917.428,VALID,0.0,VALID,98.688,VALID,-0.031,VALID,18.507,INVALID,360.0,VALID,0.0,
2019-08-04, 03:15:06,VALID,917.44,VALID,0.0,VALID,98.752,VALID,-0.022,VALID,18.548,INVALID,360.0,VALID,0.0,
2019-08-04, 03:16:06,VALID,917.44,VALID,0.0,VALID,98.879,VALID,-0.021,VALID,18.616,VALID,60.0,VALID,0.0,
2019-08-04, 03:17:06,VALID,917.44,VALID,0.0,VALID,98.894,VALID,-0.023,VALID,18.654,INVALID,360.0,VALID,0.0,
2019-08-04, 03:18:06,VALID,917.433,VALID,0.0,VALID,98.974,VALID,-0.012,VALID,18.742,INVALID,360.0,VALID,0.0,
2019-08-04, 03:19:06,VALID,917.42,VALID,0.0,VALID,99.019,VALID,0.004,VALID,18.794,INVALID,360.0,VALID,0.0,
2019-08-04, 03:20:06,VALID,917.421,VALID,0.0,VALID,99.094,VALID,-0.0,VALID,18.88,INVALID,360.0,VALID,0.0,
2019-08-04, 03:21:06,VALID,917.416,VALID,0.0,VALID,99.125,VALID,-0.013,VALID,18.925,INVALID,360.0,VALID,0.0,
2019-08-04, 03:22:06,VALID,917.414,VALID,0.0,VALID,99.127,VALID,0.008,VALID,18.953,INVALID,360.0,VALID,0.0,
2019-08-04, 03:23:06,VALID,917.422,VALID,0.0,VALID,99.126,VALID,0.014,VALID,18.944,INVALID,360.0,VALID,0.0,
2019-08-04, 03:24:06,VALID,917.43,VALID,0.0,VALID,99.029,VALID,-0.01,VALID,18.872,INVALID,360.0,VALID,0.0,
2019-08-04, 03:25:06,VALID,917.396,VALID,0.0,VALID,98.847,VALID,0.011,VALID,18.745,INVALID,360.0,VALID,0.0,
2019-08-04, 03:26:06,VALID,917.414,VALID,0.0,VALID,98.698,VALID,0.003,VALID,18.679,INVALID,360.0,VALID,0.0,
2019-08-04, 03:27:06,VALID,917.405,VALID,0.0,VALID,98.757,VALID,0.022,VALID,18.71,INVALID,360.0,VALID,0.0,
2019-08-04, 03:28:06,VALID,917.39,VALID,0.0,VALID,98.842,VALID,0.019,VALID,18.722,INVALID,360.0,VALID,0.0,
2019-08-04, 03:29:06,VALID,917.352,VALID,0.0,VALID,98.888,VALID,0.015,VALID,18.673,INVALID,360.0,VALID,0.0,
2019-08-04, 03:30:06,VALID,917.349,VALID,0.0,VALID,98.831,VALID,0.023,VALID,18.549,INVALID,360.0,VALID,0.0,
2019-08-04, 03:31:06,VALID,917.331,VALID,0.0,VALID,98.745,VALID,0.019,VALID,18.436,INVALID,360.0,VALID,0.0,
2019-08-04, 03:32:06,VALID,917.347,VALID,0.0,VALID,98.742,VALID,0.016,VALID,18.397,INVALID,360.0,VALID,0.0,
2019-08-04, 03:33:06,VALID,917.351,VALID,0.0,VALID,98.85,VALID,0.005,VALID,18.4,INVALID,360.0,VALID,0.0,
2019-08-04, 03:34:06,VALID,917.369,VALID,0.0,VALID,98.93,VALID,-0.021,VALID,18.429,INVALID,360.0,VALID,0.0,
2019-08-04, 03:35:06,VALID,917.379,VALID,0.0,VALID,99.007,VALID,-0.023,VALID,18.438,INVALID,360.0,VALID,0.0,
2019-08-04, 03:36:06,VALID,917.396,VALID,0.0,VALID,99.096,VALID,-0.007,VALID,18.489,INVALID,360.0,VALID,0.0,
2019-08-04, 03:37:06,VALID,917.393,VALID,0.0,VALID,99.248,VALID,-0.017,VALID,18.654,INVALID,360.0,VALID,0.0,
2019-08-04, 03:38:06,VALID,917.401,VALID,0.0,VALID,99.356,VALID,-0.016,VALID,18.804,INVALID,360.0,VALID,0.0,
2019-08-04, 03:39:06,VALID,917.407,VALID,0.0,VALID,99.339,VALID,-0.009,VALID,18.82,INVALID,360.0,VALID,0.0,
2019-08-04, 03:40:06,VALID,917.405,VALID,0.0,VALID,99.37,VALID,-0.005,VALID,18.858,INVALID,360.0,VALID,0.0,
2019-08-04, 03:41:06,VALID,917.398,VALID,0.0,VALID,99.329,VALID,-0.018,VALID,18.832,INVALID,360.0,VALID,0.0,